CDT,Max TemperatureF,Mean TemperatureF,Min TemperatureF,Max Dew PointF,MeanDew PointF,Min DewpointF,Max Humidity, Mean Humidity, Min Humidity, Max Sea Level PressureIn, Mean Sea Level PressureIn, Min Sea Level PressureIn, Max VisibilityMiles, Mean VisibilityMiles, Min VisibilityMiles, Max Wind SpeedMPH, Mean Wind SpeedMPH, Max Gust SpeedMPH,PrecipitationIn, CloudCover, Events, WindDirDegrees
2013-3-1,66,55,44,47,38,25,77,54,21,30.30,30.23,30.16,10,10,10,16,6,20,0.00,0,,220
2013-3-2,64,55,46,43,32,23,77,44,20,30.43,30.33,30.27,10,10,10,18,11,26,0.00,0,,14
2013-3-3,68,57,46,54,46,39,86,63,45,30.30,30.18,30.02,10,10,10,15,8,23,0.00,0,,157
2013-3-4,73,68,63,62,59,54,87,73,57,30.01,29.88,29.78,10,10,8,20,14,34,0.00,0,,178
2013-3-5,71,63,53,63,43,25,94,52,20,30.33,30.13,29.82,10,10,8,29,15,40,0.00,3,,3
2013-3-6,62,52,43,48,35,25,80,52,33,30.44,30.34,30.25,10,10,10,15,10,,0.00,0,,68
2013-3-7,72,64,55,60,56,50,90,77,59,30.24,30.18,30.14,10,10,10,17,8,,0.00,2,,117
2013-3-8,72,68,63,64,62,60,94,86,75,30.14,30.09,30.04,10,9,7,17,11,22,0.00,4,,129
2013-3-9,73,70,66,66,64,63,94,85,73,30.01,29.84,29.67,10,8,7,21,13,30,0.00,5,Rain,149
2013-3-10,77,67,57,67,56,38,100,73,33,30.09,29.82,29.62,10,7,2,28,15,40,0.08,7,Rain,15
2013-3-11,72,60,48,42,34,26,64,42,19,30.18,30.10,30.02,10,10,10,20,10,25,0.00,1,,1
2013-3-12,72,58,45,53,45,39,90,56,32,30.24,30.15,30.09,10,10,10,14,9,,0.00,0,,127
2013-3-13,72,62,52,55,51,42,93,68,35,30.43,30.34,30.24,10,10,6,15,9,,0.00,0,,96
2013-3-14,75,66,59,59,56,54,90,71,55,30.41,30.33,30.28,10,10,10,15,9,17,0.00,1,,134
2013-3-15,75,68,61,62,59,57,93,76,57,30.28,30.18,30.07,10,10,10,16,9,25,0.00,0,,161
2013-3-16,77,70,64,64,62,60,90,79,62,30.06,29.93,29.83,10,10,9,21,11,30,0.00,0,,161
2013-3-17,79,72,66,68,66,64,94,84,68,29.85,29.76,29.69,10,8,4,15,11,26,0.00,5,,155
2013-3-18,80,73,68,68,66,64,100,84,65,29.88,29.78,29.73,8,5,1,14,8,21,0.00,5,,153
2013-3-19,79,70,63,68,65,57,100,85,64,29.99,29.92,29.84,10,5,1,22,11,26,0.00,5,Rain,91
2013-3-20,75,69,63,66,57,48,93,67,43,30.16,30.05,29.91,10,9,6,29,18,36,0.00,4,,59
2013-3-21,75,68,64,66,61,55,90,74,65,30.01,29.84,29.70,10,10,9,16,12,22,0.00,7,,152
2013-3-22,79,74,69,70,68,66,93,86,74,29.74,29.69,29.64,9,7,5,15,10,24,0.00,7,,155
2013-3-23,78,72,66,70,68,62,100,88,65,29.71,29.66,29.60,8,4,1,16,9,20,0.00,6,,92
2013-3-24,69,60,52,66,47,22,100,65,18,30.14,29.90,29.67,10,7,0,28,12,39,0.00,3,Fog-Rain,355
2013-3-25,63,54,45,33,28,17,63,39,18,30.36,30.26,30.14,10,10,10,20,12,23,0.00,0,,57
2013-3-26,66,56,48,36,31,24,54,39,21,30.48,30.40,30.34,10,10,10,16,12,21,0.00,0,,89
2013-3-27,69,62,57,56,47,36,73,57,44,30.35,30.28,30.21,10,10,10,18,11,21,0.00,5,,140
2013-3-28,75,68,64,61,60,57,90,77,62,30.23,30.19,30.16,10,10,10,15,8,,0.00,8,,140
2013-3-29,79,70,64,64,62,61,93,78,58,30.19,30.15,30.09,10,10,10,20,10,24,0.00,2,,138
2013-3-30,79,72,64,67,65,63,93,83,64,30.12,30.03,29.95,10,10,8,17,10,23,0.00,1,,145
2013-3-31,78,73,68,68,67,66,94,84,69,29.97,29.92,29.81,10,8,5,20,10,25,0.00,5,,150